Regional Weather Roundup
Issued by NWS Burlington, VT

Home | Current Version | Previous Version | Text Only | Print | Product List | Glossary On
Versions: 1 2 3 4 5 6 7 8 9 10 11 12 13 14 15 16 17 18 19 20 21 22 23 24 25 26 27 28 29 30 31 32 33 34 35 36 37 38 39 40 41 42 43 44 45 46 47 48 49 50
000
ASUS41 KBTV 210830
RWRBTV
VERMONT REGIONAL WEATHER ROUNDUP
NATIONAL WEATHER SERVICE BURLINGTON VT
300 AM EST WED FEB 21 2018

NOTE: "FAIR" INDICATES FEW OR NO CLOUDS BELOW 12,000 FEET WITH NO
SIGNIFICANT WEATHER AND/OR OBSTRUCTIONS TO VISIBILITY.

* THESE REPORTS ARE NOT UNDER NWS QUALITY CONTROL AND/OR DO NOT
  REPORT WEATHER SUCH AS PRECIPITATION AND FOG.

VTZ001>019-210900-
_____VERMONT_____


CITY           SKY/WX    TMP DP  RH WIND       PRES   REMARKS
BURLINGTON     FAIR      60  51  72 S20G28    30.09F
MONTPELIER     FAIR      50  49  96 S7        30.18S
MORRISVILLE    FAIR      40  40 100 CALM      30.11F FOG
ST. JOHNSBURY*   N/A     37  37 100 MISG      30.14F
LYNDONVILLE*   DRIZZLE   45  45  99 E5        30.15F
MIDDLEBURY*    CLOUDY    57  50  77 S6        30.16F
RUTLAND*       FAIR      48  45  89 E7        30.19S
SPRINGFIELD    FOG       33  33 100 CALM      30.23S VSB 1/2
HIGHGATE*      FAIR      58  51  78 S10G18    30.04F
NEWPORT*       FAIR      49  48  97 S7        30.09F
BENNINGTON     FAIR      46  43  89 CALM      30.21F FOG
ISLAND POND*     N/A     39 N/A N/A MISG        N/A
GALLUP MILLS*    N/A     32 N/A N/A MISG        N/A
UNION VILLAGE*   N/A     34 N/A N/A MISG        N/A
MT. MANSFIELD*   N/A     50 N/A N/A SW30G70     N/A

_____LAKE CHAMPLAIN_____


CITY           SKY/WX    TMP DP  RH WIND       PRES   REMARKS
BURTON ISLAND*   N/A     46  45  93 SW20G32     N/A
COLCHESTER RF*   N/A     48  45  87 S33         N/A
DIAMOND ISL*     N/A     52  50  93 SW12        N/A

$$

NYZ007-026>031-035-052-083-087-210900-
_____NORTHERN NEW YORK_____


CITY           SKY/WX    TMP DP  RH WIND       PRES   REMARKS
PLATTSBURGH    FAIR      41  40  96 NE3       30.06S FOG
SARANAC LAKE   FAIR      53  52  96 SW10      30.09F
MASSENA        CLOUDY    62  54  74 SW22      30.00S
OGDENSBURG*    FAIR      55  53  90 S9        30.00S
POTSDAM*       CLOUDY    64  52  63 SW23G30   30.00F
STARK FALLS*     N/A     57 N/A N/A S12         N/A
WATERTOWN      FAIR      64  54  69 SW16G24   30.03F
FT DRUM        FAIR      64  52  64 S18G33    30.04F
ALBANY         FAIR      55  50  83 S8        30.21F
GLENS FALLS    FAIR      35  34  96 CALM      30.19F

$$
NHZ002-005-011-210900-
_____NEW HAMPSHIRE_____


CITY           SKY/WX    TMP DP  RH WIND       PRES   REMARKS
LEBANON        FAIR      36  35  96 CALM      30.20R
KEENE          MOCLDY    32  31  96 CALM      30.25F
MT WASHINGTON  FOG       45  45 100 W61G76      N/A  VSB 0   WCI  31
PLYMOUTH       FAIR      32  32  99 CALM      30.23S
WHITEFIELD     FAIR      35  35 100 CALM      30.15F

$$

_____REGIONAL QUEBEC LOCATIONS_____


CITY           SKY/WX    TMP DP  RH WIND       PRES   REMARKS

_____REGIONAL ONTARIO LOCATIONS_____


CITY           SKY/WX    TMP DP  RH WIND       PRES   REMARKS

______KEY______
VSB  - VISIBILITY IN MILES
WCI  - WIND CHILL INDEX
HX   - HEAT INDEX
$$
NNNN



USA.gov is the U.S. government's official web portal to all federal, state and local government web resources and services.